Worthington, MN

2:23 AM CDT on April 28, 2017 (GMT -0500)
Worthington Municipal

Weather History for KOTG - May, 2012

Change the Weather History Date:

Thursday, May 24, 2012

  Actual Average Record
Temperature  
Mean Temperature 56 °F -  
Max Temperature 60 °F 66 °F 89 °F (1989)
Min Temperature 53 °F 47 °F 33 °F (2002)
Degree Days  
Heating Degree Days 8    
Growing Degree Days 6 (Base 50)    
Moisture  
Dew Point 50 °F    
Average Humidity 79    
Maximum Humidity 88    
Minimum Humidity 59    
Precipitation  
Precipitation 0.81 in - - ()
Sea Level Pressure  
Sea Level Pressure 29.53 in    
Wind  
Wind Speed 11 mph (NNW)    
Max Wind Speed 26 mph    
Max Gust Speed 29 mph    
Visibility 10 miles    
Events Thunderstorm    
Averages and records for this station are not official NWS values.
T = Trace of Precipitation, MM = Missing Value Source: NWS Daily Summary

Daily Weather History Graph

Daily Weather History Graph

Search for Another Location

Airport or City:

Trip Planner

Search our weather history database for the weather conditions in past years. The results will help you decide how hot, cold, wet, or windy it might be!

Date:

Astronomy

May. 24, 2012 Rise Set
Actual Time 5:48 AM CDT 8:50 PM CDT
Civil Twilight 5:14 AM CDT 9:24 PM CDT
Nautical Twilight 4:30 AM CDT 10:08 PM CDT
Astronomical Twilight 3:38 AM CDT 11:01 PM CDT
Moon 8:50 AM CDT (5/24) 11:49 PM CDT (5/24)
Length of Visible Light 16h 10m
Length of Day
15h 02m
Waxing Crescent, 12% of the Moon is Illuminated
May 24
Waxing Crescent
May 28
First Quarter
Jun 4
Full
Jun 11
Last Quarter
Jun 19
New

Hourly Weather History & Observations

Time (CDT) Temp. Dew Point Humidity Pressure Visibility Wind Dir Wind Speed Gust Speed Precip Events Conditions
12:15 AM 57.2 °F 53.6 °F 88% 29.54 in 10.0 mi NNE 11.5 mph - 0.05 in Thunderstorm Overcast
12:35 AM 57.2 °F 51.8 °F 82% 29.51 in 10.0 mi NNE 17.3 mph - 0.07 in   Overcast
12:55 AM 57.2 °F 51.8 °F 82% 29.53 in 10.0 mi ENE 12.7 mph - 0.08 in   Mostly Cloudy
1:15 AM 57.2 °F 53.6 °F 88% 29.49 in 10.0 mi ENE 16.1 mph 20.7 mph 0.01 in   Overcast
1:35 AM 57.2 °F 51.8 °F 82% 29.52 in 10.0 mi NE 10.4 mph - 0.02 in   Mostly Cloudy
1:55 AM 55.4 °F 51.8 °F 88% 29.50 in 10.0 mi NNE 11.5 mph - 0.07 in   Overcast
2:15 AM 55.4 °F 51.8 °F 88% 29.49 in 7.0 mi ENE 6.9 mph - 0.06 in Thunderstorm Overcast
2:35 AM 55.4 °F 51.8 °F 88% 29.49 in 10.0 mi NE 9.2 mph - 0.11 in   Mostly Cloudy
2:55 AM 55.4 °F 51.8 °F 88% 29.48 in 10.0 mi NNE 8.1 mph - 0.17 in   Mostly Cloudy
3:15 AM 55.4 °F 51.8 °F 88% 29.43 in 10.0 mi ENE 10.4 mph - 0.06 in   Overcast
3:35 AM 55.4 °F 51.8 °F 88% 29.50 in 10.0 mi SW 4.6 mph - 0.09 in   Overcast
3:55 AM 55.4 °F 51.8 °F 88% 29.53 in 10.0 mi West 8.1 mph - 0.10 in   Overcast
4:15 AM 55.4 °F 51.8 °F 88% 29.50 in 10.0 mi NW 10.4 mph - 0.04 in   Overcast
4:35 AM 55.4 °F 51.8 °F 88% 29.52 in 10.0 mi WNW 11.5 mph - 0.09 in   Overcast
4:55 AM 55.4 °F 50.0 °F 82% 29.49 in 10.0 mi North 12.7 mph - 0.14 in   Overcast
5:15 AM 55.4 °F 50.0 °F 82% 29.52 in 10.0 mi NW 12.7 mph - 0.06 in   Overcast
5:35 AM 55.4 °F 51.8 °F 88% 29.55 in 9.0 mi WNW 6.9 mph - 0.09 in   Mostly Cloudy
5:55 AM 55.4 °F 51.8 °F 88% 29.46 in 10.0 mi NNE 10.4 mph - 0.15 in   Mostly Cloudy
6:15 AM 55.4 °F 51.8 °F 88% 29.42 in 10.0 mi North 11.5 mph - 0.02 in   Partly Cloudy
6:35 AM 55.4 °F 51.8 °F 88% 29.44 in 10.0 mi North 9.2 mph - 0.02 in   Mostly Cloudy
6:55 AM 55.4 °F 51.8 °F 88% 29.47 in 10.0 mi North 3.5 mph - 0.02 in   Mostly Cloudy
7:15 AM 57.2 °F 51.8 °F 82% 29.48 in 10.0 mi North 4.6 mph - N/A   Overcast
7:35 AM 57.2 °F 51.8 °F 82% 29.48 in 10.0 mi North 5.8 mph - N/A   Overcast
7:55 AM 57.2 °F 53.6 °F 88% 29.49 in 10.0 mi NW 6.9 mph - N/A   Overcast
8:15 AM 57.2 °F 53.6 °F 88% 29.51 in 9.0 mi WNW 6.9 mph - N/A   Overcast
8:35 AM 57.2 °F 53.6 °F 88% 29.46 in 5.0 mi North 6.9 mph - 0.02 in   Overcast
8:55 AM 57.2 °F 53.6 °F 88% 29.46 in 10.0 mi North 9.2 mph - 0.02 in   Overcast
9:15 AM 57.2 °F 53.6 °F 88% 29.45 in 10.0 mi NNE 12.7 mph - N/A   Overcast
9:35 AM 57.2 °F 53.6 °F 88% 29.47 in 10.0 mi NNW 11.5 mph - N/A   Overcast
9:55 AM 57.2 °F 53.6 °F 88% 29.45 in 10.0 mi NNW 11.5 mph - 0.01 in   Overcast
10:15 AM 57.2 °F 53.6 °F 88% 29.41 in 10.0 mi NNE 10.4 mph - N/A   Overcast
10:35 AM 59.0 °F 53.6 °F 82% 29.41 in 10.0 mi NNE 11.5 mph - N/A   Overcast
10:55 AM 59.0 °F 53.6 °F 82% 29.43 in 10.0 mi North 12.7 mph - N/A   Overcast
11:15 AM 59.0 °F 53.6 °F 82% 29.44 in 10.0 mi North 13.8 mph - N/A   Overcast
11:35 AM 59.0 °F 53.6 °F 82% 29.44 in 5.0 mi North 13.8 mph 19.6 mph 0.01 in Thunderstorm Thunderstorm
11:55 AM 57.2 °F 53.6 °F 88% 29.43 in 8.0 mi North 19.6 mph - 0.02 in   Overcast
12:15 PM 57.2 °F 53.6 °F 88% 29.45 in 10.0 mi NNW 17.3 mph - 0.01 in   Overcast
12:35 PM 57.2 °F 51.8 °F 82% 29.47 in 10.0 mi NNW 18.4 mph 21.9 mph 0.01 in   Overcast
12:55 PM 57.2 °F 50.0 °F 77% 29.48 in 10.0 mi NW 20.7 mph - 0.01 in   Overcast
1:15 PM 55.4 °F 50.0 °F 82% 29.49 in 4.0 mi NW 19.6 mph 27.6 mph 0.01 in   Overcast
1:35 PM 55.4 °F 48.2 °F 77% 29.49 in 8.0 mi NW 20.7 mph 25.3 mph 0.02 in   Mostly Cloudy
1:55 PM 57.2 °F 50.0 °F 77% 29.49 in 10.0 mi NNW 21.9 mph 28.8 mph 0.02 in   Mostly Cloudy
2:15 PM 59.0 °F 50.0 °F 72% 29.49 in 10.0 mi NNW 26.5 mph - N/A   Mostly Cloudy
2:35 PM 57.2 °F 48.2 °F 72% 29.50 in 10.0 mi NNW 20.7 mph 27.6 mph N/A   Overcast
2:55 PM 57.2 °F 46.4 °F 67% 29.50 in 10.0 mi NNW 19.6 mph - N/A   Overcast
3:15 PM 57.2 °F 48.2 °F 72% 29.51 in 10.0 mi NNW 15.0 mph - N/A   Overcast
3:35 PM 57.2 °F 48.2 °F 72% 29.52 in 10.0 mi NNW 15.0 mph - N/A   Overcast
3:55 PM 57.2 °F 48.2 °F 72% 29.52 in 10.0 mi NNW 13.8 mph - N/A   Overcast
4:15 PM 57.2 °F 50.0 °F 77% 29.53 in 10.0 mi NNW 10.4 mph - N/A   Overcast
4:35 PM 59.0 °F 50.0 °F 72% 29.54 in 10.0 mi NNW 11.5 mph - N/A   Overcast
4:55 PM 59.0 °F 48.2 °F 67% 29.55 in 10.0 mi NNW 13.8 mph - N/A   Overcast
5:15 PM 59.0 °F 46.4 °F 63% 29.56 in 10.0 mi NNW 15.0 mph 19.6 mph N/A   Overcast
5:35 PM 59.0 °F 48.2 °F 67% 29.56 in 10.0 mi NNW 11.5 mph - N/A   Mostly Cloudy
5:55 PM 60.8 °F 48.2 °F 63% 29.56 in 10.0 mi NNW 13.8 mph - N/A   Mostly Cloudy
6:15 PM 59.0 °F 44.6 °F 59% 29.57 in 10.0 mi North 10.4 mph - N/A   Mostly Cloudy
6:35 PM 59.0 °F 44.6 °F 59% 29.58 in 10.0 mi North 9.2 mph - N/A   Overcast
6:55 PM 59.0 °F 44.6 °F 59% 29.59 in 10.0 mi NNW 6.9 mph - N/A   Scattered Clouds
7:15 PM 59.0 °F 44.6 °F 59% 29.61 in 10.0 mi NW 4.6 mph - N/A   Mostly Cloudy
7:35 PM 59.0 °F 46.4 °F 63% 29.62 in 10.0 mi WSW 4.6 mph - N/A   Mostly Cloudy
7:55 PM 57.2 °F 48.2 °F 72% 29.64 in 10.0 mi SW 5.8 mph - N/A   Scattered Clouds
8:15 PM 57.2 °F 48.2 °F 72% 29.65 in 10.0 mi SSW 6.9 mph - N/A   Partly Cloudy
8:35 PM 57.2 °F 48.2 °F 72% 29.64 in 10.0 mi SSE 4.6 mph - N/A   Mostly Cloudy
8:55 PM 57.2 °F 48.2 °F 72% 29.66 in 10.0 mi SSW 5.8 mph - N/A   Scattered Clouds
9:15 PM 57.2 °F 48.2 °F 72% 29.67 in 10.0 mi SSW 4.6 mph - N/A   Scattered Clouds
9:35 PM 55.4 °F 48.2 °F 77% 29.68 in 10.0 mi SW 5.8 mph - N/A   Scattered Clouds
9:55 PM 53.6 °F 48.2 °F 82% 29.69 in 10.0 mi SSW 5.8 mph - N/A   Partly Cloudy
10:15 PM 53.6 °F 46.4 °F 77% 29.71 in 10.0 mi SW 5.8 mph - N/A   Partly Cloudy
10:35 PM 53.6 °F 46.4 °F 77% 29.72 in 10.0 mi WSW 6.9 mph - N/A   Scattered Clouds
10:55 PM 53.6 °F 46.4 °F 77% 29.73 in 10.0 mi WSW 8.1 mph - N/A   Partly Cloudy
11:15 PM 53.6 °F 46.4 °F 77% 29.75 in 10.0 mi SW 8.1 mph - N/A   Clear
11:35 PM 53.6 °F 48.2 °F 82% 29.76 in 10.0 mi SW 10.4 mph - N/A   Mostly Cloudy
11:55 PM 53.6 °F 48.2 °F 82% 29.76 in 10.0 mi SW 9.2 mph - N/A   Mostly Cloudy